Time,TemperatureF,DewpointF,PressureIn,WindDirection,WindDirectionDegrees,WindSpeedMPH,WindSpeedGustMPH,Humidity,HourlyPrecipIn,Conditions,Clouds,dailyrainin,SoftwareType,DateUTC
2013-01-26 00:03:00,35.0,29.0,29.91,WNW,303,10.0,25.0,78,0.00,,,0.00,,2013-01-26 05:03:00,
2013-01-26 00:12:00,35.0,29.0,29.91,WNW,303,10.0,25.0,78,0.00,,,0.00,,2013-01-26 05:12:00,
2013-01-26 00:23:00,36.0,29.0,29.91,WNW,294,7.0,20.0,76,0.00,,,0.00,,2013-01-26 05:23:00,
2013-01-26 00:33:00,36.0,29.0,29.91,NNW,327,8.0,19.0,75,0.00,,,0.00,,2013-01-26 05:33:00,
2013-01-26 00:42:00,36.0,29.0,29.91,NNW,327,8.0,19.0,75,0.00,,,0.00,,2013-01-26 05:42:00,
2013-01-26 00:53:00,36.0,29.0,29.91,WNW,300,7.0,18.0,74,0.00,,,0.00,,2013-01-26 05:53:00,
2013-01-26 01:02:00,36.0,28.0,29.91,WSW,254,9.0,24.0,72,0.00,,,0.00,,2013-01-26 06:02:00,
2013-01-26 01:12:00,36.0,28.0,29.91,WSW,254,9.0,24.0,72,0.00,,,0.00,,2013-01-26 06:12:00,
2013-01-26 01:21:00,36.0,28.0,29.91,WSW,255,4.0,17.0,71,0.00,,,0.00,,2013-01-26 06:21:00,
2013-01-26 01:32:00,35.0,27.0,29.92,NW,306,7.0,21.0,72,0.00,,,0.00,,2013-01-26 06:32:00,
2013-01-26 01:42:00,35.0,27.0,29.92,NW,306,7.0,21.0,72,0.00,,,0.00,,2013-01-26 06:42:00,
2013-01-26 01:52:00,35.0,27.0,29.92,West,280,7.0,22.0,72,0.00,,,0.00,,2013-01-26 06:52:00,
2013-01-26 02:02:00,34.0,27.0,29.92,West,277,5.0,17.0,75,0.00,,,0.00,,2013-01-26 07:02:00,
2013-01-26 02:12:00,34.0,27.0,29.92,West,277,5.0,17.0,75,0.00,,,0.00,,2013-01-26 07:12:00,
2013-01-26 02:22:00,34.0,27.0,29.92,West,277,5.0,17.0,75,0.00,,,0.00,,2013-01-26 07:22:00,
2013-01-26 02:33:00,34.0,25.0,29.93,SSE,159,4.0,17.0,70,0.00,,,0.00,,2013-01-26 07:33:00,
2013-01-26 02:41:00,34.0,25.0,29.93,SSE,159,4.0,17.0,70,0.00,,,0.00,,2013-01-26 07:41:00,
2013-01-26 02:52:00,33.0,25.0,29.93,SW,232,5.0,12.0,71,0.00,,,0.00,,2013-01-26 07:52:00,
2013-01-26 03:02:00,33.0,23.0,29.93,NE,51,3.0,16.0,67,0.00,,,0.00,,2013-01-26 08:02:00,
2013-01-26 03:11:00,33.0,23.0,29.93,NE,51,3.0,16.0,67,0.00,,,0.00,,2013-01-26 08:11:00,
2013-01-26 03:21:00,33.0,23.0,29.92,SW,223,7.0,20.0,66,0.00,,,0.00,,2013-01-26 08:21:00,
2013-01-26 03:32:00,33.0,23.0,29.92,NNE,28,6.0,14.0,67,0.00,,,0.00,,2013-01-26 08:32:00,
2013-01-26 03:42:00,33.0,23.0,29.92,NNE,28,6.0,14.0,67,0.00,,,0.00,,2013-01-26 08:42:00,
2013-01-26 03:54:00,32.0,23.0,29.92,ENE,61,5.0,27.0,70,0.00,,,0.00,,2013-01-26 08:54:00,
2013-01-26 04:02:00,31.0,23.0,29.92,North,9,3.0,21.0,71,0.00,,,0.00,,2013-01-26 09:02:00,
2013-01-26 04:11:00,31.0,23.0,29.92,North,9,3.0,21.0,71,0.00,,,0.00,,2013-01-26 09:11:00,
2013-01-26 04:22:00,31.0,22.0,29.91,East,94,2.0,10.0,69,0.00,,,0.00,,2013-01-26 09:22:00,
2013-01-26 04:32:00,31.0,23.0,29.92,WSW,241,8.0,16.0,71,0.00,,,0.00,,2013-01-26 09:32:00,
2013-01-26 04:42:00,31.0,23.0,29.92,WSW,241,8.0,16.0,71,0.00,,,0.00,,2013-01-26 09:42:00,
2013-01-26 04:52:00,30.0,22.0,29.92,South,181,2.0,10.0,71,0.00,,,0.00,,2013-01-26 09:52:00,
2013-01-26 05:01:00,30.0,22.0,29.92,ENE,68,7.0,12.0,72,0.00,,,0.00,,2013-01-26 10:01:00,
2013-01-26 05:12:00,30.0,22.0,29.92,ENE,68,7.0,12.0,72,0.00,,,0.00,,2013-01-26 10:12:00,
2013-01-26 05:21:00,30.0,21.0,29.93,ENE,78,4.0,8.0,70,0.00,,,0.00,,2013-01-26 10:21:00,
2013-01-26 05:32:00,31.0,22.0,29.93,SE,126,1.0,10.0,68,0.00,,,0.00,,2013-01-26 10:32:00,
2013-01-26 05:42:00,31.0,22.0,29.93,SE,126,1.0,10.0,68,0.00,,,0.00,,2013-01-26 10:42:00,
2013-01-26 05:52:00,30.0,21.0,29.94,WSW,258,6.0,17.0,69,0.00,,,0.00,,2013-01-26 10:52:00,
2013-01-26 06:01:00,30.0,22.0,29.93,NNE,33,9.0,21.0,71,0.00,,,0.00,,2013-01-26 11:01:00,
2013-01-26 06:12:00,30.0,22.0,29.93,NNE,33,9.0,21.0,71,0.00,,,0.00,,2013-01-26 11:12:00,
2013-01-26 06:22:00,29.0,21.0,29.94,NW,315,4.0,12.0,72,0.00,,,0.00,,2013-01-26 11:22:00,
2013-01-26 06:32:00,29.0,21.0,29.95,North,5,4.0,16.0,72,0.00,,,0.00,,2013-01-26 11:32:00,
2013-01-26 06:42:00,29.0,21.0,29.95,North,5,4.0,16.0,72,0.00,,,0.00,,2013-01-26 11:42:00,
2013-01-26 06:52:00,29.0,21.0,29.96,NNE,18,5.0,17.0,72,0.00,,,0.00,,2013-01-26 11:52:00,
2013-01-26 07:02:00,29.0,21.0,29.96,NNE,17,4.0,18.0,72,0.00,,,0.00,,2013-01-26 12:02:00,
2013-01-26 07:12:00,29.0,21.0,29.96,NNE,17,4.0,18.0,72,0.00,,,0.00,,2013-01-26 12:12:00,
2013-01-26 07:23:00,29.0,21.0,29.97,SE,136,5.0,10.0,71,0.00,,,0.00,,2013-01-26 12:23:00,
2013-01-26 07:33:00,29.0,20.0,29.97,SE,142,7.0,11.0,70,0.00,,,0.00,,2013-01-26 12:33:00,
2013-01-26 07:42:00,29.0,20.0,29.97,SE,142,7.0,11.0,70,0.00,,,0.00,,2013-01-26 12:42:00,
2013-01-26 07:53:00,29.0,20.0,29.98,NE,56,8.0,14.0,70,0.00,,,0.00,,2013-01-26 12:53:00,
2013-01-26 08:03:00,29.0,20.0,29.98,South,187,2.0,18.0,69,0.00,,,0.00,,2013-01-26 13:03:00,
2013-01-26 08:12:00,29.0,20.0,29.98,South,187,2.0,18.0,69,0.00,,,0.00,,2013-01-26 13:12:00,
2013-01-26 08:22:00,30.0,21.0,29.99,NW,307,6.0,18.0,68,0.00,,,0.00,,2013-01-26 13:22:00,
2013-01-26 08:33:00,30.0,21.0,30.00,NW,307,2.0,12.0,68,0.00,,,0.00,,2013-01-26 13:33:00,
2013-01-26 08:42:00,30.0,21.0,30.00,NW,307,2.0,12.0,68,0.00,,,0.00,,2013-01-26 13:42:00,
2013-01-26 08:53:00,29.0,20.0,30.01,NW,306,1.0,10.0,69,0.00,,,0.00,,2013-01-26 13:53:00,
2013-01-26 09:03:00,29.0,20.0,30.02,NNW,348,4.0,18.0,70,0.00,,,0.00,,2013-01-26 14:03:00,
2013-01-26 09:12:00,29.0,20.0,30.02,NNW,348,4.0,18.0,70,0.00,,,0.00,,2013-01-26 14:12:00,
2013-01-26 09:22:00,29.0,20.0,30.03,NW,315,12.0,19.0,70,0.00,,,0.00,,2013-01-26 14:22:00,
2013-01-26 09:32:00,29.0,20.0,30.03,WSW,240,6.0,16.0,70,0.00,,,0.00,,2013-01-26 14:32:00,
2013-01-26 09:43:00,29.0,20.0,30.03,WSW,240,6.0,16.0,70,0.00,,,0.00,,2013-01-26 14:43:00,
2013-01-26 09:53:00,29.0,20.0,30.04,WSW,252,5.0,22.0,70,0.00,,,0.00,,2013-01-26 14:53:00,
2013-01-26 10:03:00,29.0,20.0,30.04,West,266,6.0,12.0,69,0.00,,,0.00,,2013-01-26 15:03:00,
2013-01-26 10:12:00,29.0,20.0,30.04,West,266,6.0,12.0,69,0.00,,,0.00,,2013-01-26 15:12:00,
2013-01-26 10:22:00,29.0,20.0,30.05,WNW,300,5.0,11.0,68,0.00,,,0.00,,2013-01-26 15:22:00,
2013-01-26 10:32:00,30.0,20.0,30.07,NW,309,1.0,8.0,66,0.00,,,0.00,,2013-01-26 15:32:00,
2013-01-26 10:43:00,30.0,20.0,30.07,NW,309,1.0,8.0,66,0.00,,,0.00,,2013-01-26 15:43:00,
2013-01-26 10:53:00,31.0,21.0,30.08,NW,307,3.0,4.0,65,0.00,,,0.00,,2013-01-26 15:53:00,
2013-01-26 11:02:00,31.0,21.0,30.08,NW,318,4.0,10.0,65,0.00,,,0.00,,2013-01-26 16:02:00,
2013-01-26 11:12:00,31.0,21.0,30.09,NW,304,3.0,7.0,66,0.00,,,0.00,,2013-01-26 16:12:00,
2013-01-26 11:22:00,31.0,21.0,30.09,NW,304,3.0,7.0,66,0.00,,,0.00,,2013-01-26 16:22:00,
2013-01-26 11:33:00,31.0,21.0,30.09,SW,234,1.0,7.0,65,0.00,,,0.00,,2013-01-26 16:33:00,
2013-01-26 11:42:00,31.0,21.0,30.09,SW,234,1.0,7.0,65,0.00,,,0.00,,2013-01-26 16:42:00,
2013-01-26 11:53:00,32.0,22.0,30.09,WSW,247,3.0,8.0,66,0.00,,,0.00,,2013-01-26 16:53:00,
2013-01-26 12:03:00,33.0,23.0,30.09,NW,319,3.0,9.0,66,0.00,,,0.00,,2013-01-26 17:03:00,
2013-01-26 12:13:00,33.0,23.0,30.09,NW,319,3.0,9.0,66,0.00,,,0.00,,2013-01-26 17:13:00,
2013-01-26 12:22:00,33.0,23.0,30.09,WNW,286,6.0,12.0,65,0.00,,,0.00,,2013-01-26 17:22:00,
2013-01-26 12:33:00,34.0,23.0,30.09,West,265,6.0,14.0,65,0.00,,,0.00,,2013-01-26 17:33:00,
2013-01-26 12:42:00,34.0,23.0,30.09,West,265,6.0,14.0,65,0.00,,,0.00,,2013-01-26 17:42:00,
2013-01-26 12:53:00,34.0,23.0,30.07,West,266,4.0,13.0,65,0.00,,,0.00,,2013-01-26 17:53:00,
2013-01-26 13:03:00,34.0,23.0,30.06,NW,315,4.0,17.0,65,0.00,,,0.00,,2013-01-26 18:03:00,
2013-01-26 13:12:00,34.0,23.0,30.06,NW,315,4.0,17.0,65,0.00,,,0.00,,2013-01-26 18:12:00,
2013-01-26 13:22:00,36.0,24.0,30.06,WNW,292,5.0,10.0,61,0.00,,,0.00,,2013-01-26 18:22:00,
2013-01-26 13:33:00,36.0,23.0,30.06,WNW,295,8.0,14.0,60,0.00,,,0.00,,2013-01-26 18:33:00,
2013-01-26 13:42:00,36.0,23.0,30.06,WNW,295,8.0,14.0,60,0.00,,,0.00,,2013-01-26 18:42:00,
2013-01-26 13:53:00,37.0,25.0,30.07,WNW,302,7.0,16.0,61,0.00,,,0.00,,2013-01-26 18:53:00,
2013-01-26 14:03:00,37.0,25.0,30.06,West,275,6.0,11.0,61,0.01,,,0.01,,2013-01-26 19:03:00,
2013-01-26 14:12:00,37.0,25.0,30.06,West,275,6.0,11.0,61,0.01,,,0.01,,2013-01-26 19:12:00,
2013-01-26 14:22:00,38.0,25.0,30.06,NW,310,7.0,11.0,59,0.02,,,0.02,,2013-01-26 19:22:00,
2013-01-26 14:32:00,39.0,25.0,30.06,NW,313,2.0,8.0,58,0.03,,,0.03,,2013-01-26 19:32:00,
2013-01-26 14:42:00,39.0,25.0,30.06,NW,313,2.0,8.0,58,0.03,,,0.03,,2013-01-26 19:42:00,
2013-01-26 14:53:00,40.0,26.0,30.06,West,278,1.0,6.0,57,0.04,,,0.04,,2013-01-26 19:53:00,
2013-01-26 15:02:00,42.0,27.0,30.06,WSW,255,0.0,6.0,55,0.05,,,0.06,,2013-01-26 20:02:00,
2013-01-26 15:11:00,42.0,27.0,30.06,WSW,255,0.0,6.0,55,0.05,,,0.06,,2013-01-26 20:11:00,
2013-01-26 15:22:00,42.0,27.0,30.07,ENE,72,0.0,7.0,55,0.05,,,0.07,,2013-01-26 20:22:00,
2013-01-26 15:32:00,42.0,27.0,30.07,ENE,64,5.0,10.0,55,0.04,,,0.08,,2013-01-26 20:32:00,
2013-01-26 15:42:00,42.0,27.0,30.07,ENE,64,5.0,10.0,55,0.04,,,0.08,,2013-01-26 20:42:00,
2013-01-26 15:52:00,42.0,27.0,30.08,NE,38,2.0,7.0,56,0.05,,,0.09,,2013-01-26 20:52:00,
2013-01-26 16:02:00,41.0,27.0,30.09,NE,44,0.0,6.0,56,0.04,,,0.10,,2013-01-26 21:02:00,
2013-01-26 16:12:00,41.0,27.0,30.09,NE,44,0.0,6.0,56,0.04,,,0.10,,2013-01-26 21:12:00,
2013-01-26 16:22:00,40.0,26.0,30.09,NE,36,1.0,9.0,58,0.04,,,0.11,,2013-01-26 21:22:00,
2013-01-26 16:32:00,38.0,25.0,30.10,WNW,284,0.0,5.0,60,0.03,,,0.11,,2013-01-26 21:32:00,
2013-01-26 16:42:00,38.0,25.0,30.10,WNW,284,0.0,5.0,60,0.03,,,0.11,,2013-01-26 21:42:00,
2013-01-26 16:52:00,36.0,25.0,30.10,West,272,1.0,7.0,64,0.03,,,0.12,,2013-01-26 21:52:00,
2013-01-26 17:02:00,35.0,25.0,30.11,WNW,294,2.0,6.0,66,0.02,,,0.12,,2013-01-26 22:02:00,
2013-01-26 17:12:00,35.0,25.0,30.11,WNW,294,2.0,6.0,66,0.02,,,0.12,,2013-01-26 22:12:00,
2013-01-26 17:22:00,34.0,24.0,30.12,NW,319,5.0,8.0,67,0.01,,,0.12,,2013-01-26 22:22:00,
2013-01-26 17:32:00,33.0,24.0,30.13,WNW,301,5.0,10.0,69,0.01,,,0.12,,2013-01-26 22:32:00,
2013-01-26 17:42:00,33.0,24.0,30.13,WNW,301,5.0,10.0,69,0.01,,,0.12,,2013-01-26 22:42:00,
2013-01-26 17:52:00,32.0,24.0,30.13,West,280,4.0,8.0,71,0.00,,,0.12,,2013-01-26 22:52:00,
2013-01-26 18:01:00,32.0,24.0,30.14,NNE,22,3.0,9.0,72,0.00,,,0.12,,2013-01-26 23:01:00,
2013-01-26 18:12:00,32.0,24.0,30.14,NNE,22,3.0,9.0,72,0.00,,,0.12,,2013-01-26 23:12:00,
2013-01-26 18:22:00,31.0,23.0,30.13,NW,316,4.0,9.0,73,0.00,,,0.12,,2013-01-26 23:22:00,
2013-01-26 18:32:00,31.0,24.0,30.14,WNW,293,4.0,8.0,74,0.00,,,0.12,,2013-01-26 23:32:00,
2013-01-26 18:42:00,31.0,24.0,30.14,WNW,293,4.0,8.0,74,0.00,,,0.12,,2013-01-26 23:42:00,
2013-01-26 18:52:00,30.0,23.0,30.14,NW,309,5.0,11.0,74,0.00,,,0.12,,2013-01-26 23:52:00,
2013-01-26 19:02:00,31.0,23.0,30.14,North,9,7.0,11.0,73,0.00,,,0.12,,2013-01-27 00:02:00,
2013-01-26 19:12:00,31.0,23.0,30.14,North,9,7.0,11.0,73,0.00,,,0.12,,2013-01-27 00:12:00,
2013-01-26 19:21:00,31.0,23.0,30.14,NNW,339,4.0,9.0,72,0.00,,,0.12,,2013-01-27 00:21:00,
2013-01-26 19:32:00,30.0,22.0,30.15,NW,323,4.0,13.0,73,0.00,,,0.12,,2013-01-27 00:32:00,
2013-01-26 19:42:00,30.0,22.0,30.15,NW,323,4.0,13.0,73,0.00,,,0.12,,2013-01-27 00:42:00,
2013-01-26 19:52:00,31.0,23.0,30.15,NNW,340,1.0,8.0,72,0.00,,,0.12,,2013-01-27 00:52:00,
2013-01-26 20:01:00,31.0,23.0,30.15,WSW,249,0.0,3.0,72,0.00,,,0.12,,2013-01-27 01:01:00,
2013-01-26 20:11:00,31.0,23.0,30.15,WSW,249,0.0,3.0,72,0.00,,,0.12,,2013-01-27 01:11:00,
2013-01-26 20:22:00,30.0,23.0,30.15,WSW,247,0.0,0.0,74,0.00,,,0.12,,2013-01-27 01:22:00,
2013-01-26 20:32:00,30.0,23.0,30.15,WSW,242,0.0,0.0,75,0.00,,,0.12,,2013-01-27 01:32:00,
2013-01-26 20:42:00,30.0,23.0,30.15,WSW,242,0.0,0.0,75,0.00,,,0.12,,2013-01-27 01:42:00,
2013-01-26 20:52:00,29.0,22.0,30.16,WSW,239,0.0,2.0,76,0.00,,,0.12,,2013-01-27 01:52:00,
2013-01-26 21:01:00,29.0,22.0,30.16,WSW,238,0.0,2.0,76,0.00,,,0.12,,2013-01-27 02:01:00,
2013-01-26 21:12:00,29.0,22.0,30.16,WSW,238,0.0,2.0,76,0.00,,,0.12,,2013-01-27 02:12:00,
2013-01-26 21:22:00,29.0,22.0,30.16,SSE,159,0.0,0.0,75,0.00,,,0.12,,2013-01-27 02:22:00,
2013-01-26 21:32:00,28.0,21.0,30.17,ESE,119,0.0,6.0,74,0.00,,,0.12,,2013-01-27 02:32:00,
2013-01-26 21:42:00,28.0,21.0,30.17,ESE,119,0.0,6.0,74,0.00,,,0.12,,2013-01-27 02:42:00,
2013-01-26 21:52:00,29.0,21.0,30.18,ESE,119,0.0,0.0,73,0.00,,,0.12,,2013-01-27 02:52:00,
2013-01-26 22:02:00,28.0,21.0,30.18,ESE,119,0.0,0.0,74,0.00,,,0.12,,2013-01-27 03:02:00,
2013-01-26 22:11:00,28.0,21.0,30.18,ESE,119,0.0,0.0,74,0.00,,,0.12,,2013-01-27 03:11:00,
2013-01-26 22:21:00,27.0,20.0,30.19,ESE,119,0.0,0.0,75,0.00,,,0.12,,2013-01-27 03:21:00,
2013-01-26 22:32:00,27.0,21.0,30.19,ESE,119,0.0,0.0,77,0.00,,,0.12,,2013-01-27 03:32:00,
2013-01-26 22:42:00,27.0,21.0,30.19,ESE,119,0.0,0.0,77,0.00,,,0.12,,2013-01-27 03:42:00,
2013-01-26 22:52:00,26.0,20.0,30.21,ESE,119,0.0,0.0,78,0.00,,,0.12,,2013-01-27 03:52:00,
2013-01-26 23:02:00,26.0,20.0,30.20,ESE,119,0.0,0.0,79,0.00,,,0.12,,2013-01-27 04:02:00,
2013-01-26 23:12:00,26.0,20.0,30.20,ESE,119,0.0,0.0,79,0.00,,,0.12,,2013-01-27 04:12:00,
2013-01-26 23:21:00,26.0,21.0,30.20,ESE,119,0.0,0.0,81,0.00,,,0.12,,2013-01-27 04:21:00,
2013-01-26 23:32:00,26.0,21.0,30.21,ESE,119,0.0,0.0,82,0.00,,,0.12,,2013-01-27 04:32:00,
2013-01-26 23:41:00,26.0,21.0,30.21,ESE,119,0.0,0.0,82,0.00,,,0.12,,2013-01-27 04:41:00,
2013-01-26 23:52:00,25.0,20.0,30.20,ESE,119,0.0,0.0,82,0.00,,,0.12,,2013-01-27 04:52:00,